Flag for Germany Weather past 2 weeks in Demmin, Mecklenburg-Western Pomerania, Germany

Now
34 °F

Passing clouds.


Feels Like: 31 °F
Forecast: 25 / 35 °F
Wind: 3 mph from Southwest

Location: Greifswald

Current Time: Feb 2, 2015 at 12:28:06 AM

Latest Report: Feb 2, 2015 at 12:00 AM


Visibility: 6 mi

Pressure: 29.18 "Hg

Humidity: 90%

Dew point: 31 °F

Location of DemminLocation

Historic Weather in Demmin — Graph

°F

Demmin temperature yesterday

Maximum temperature yesterday: 34 °F (at 3:00 PM)
Minimum temperature yesterday: 27 °F (at 2:00 AM)
Average temperature yesterday: 31 °F

Past Weeks' High & Low Weather Summary

 TemperatureHumidityPressure
High41 °F (Jan 28, 3:00 PM)100% (Jan 21, 12:00 AM)30.31 "Hg (Jan 21, 12:00 AM)
Low26 °F (Jan 23, 3:00 AM)69% (Jan 29, 12:00 PM)28.73 "Hg (Jan 30, 2:00 PM)
Average33 °F91%29.73 "Hg
* Reported Jan 17 11:00 PM — Feb 1 11:00 PM, Demmin, Weather by CustomWeather, © 2014

Note: Actual official high and low records may vary slightly from our data, if they occured in-between our weather recording intervals... More about our weather records

Advertising

Demmin weather history for previous 24 hours

 ConditionsComfort  
Time TempWeatherWind HumidityBarometerVisibility
11:00 PM
Feb 1
34 °FOvercast.3 mph91%29.18 "Hg6 mi
9:00 PM34 °FLow clouds.5 mph92%29.18 "Hg4 mi
8:00 PM33 °FLight snow. Low clouds.3 mph95%29.18 "Hg2 mi
7:00 PM34 °FSnow flurries. Overcast.3 mph92%29.18 "Hg5 mi
6:00 PM34 °FOvercast.3 mph87%29.15 "Hg5 mi
5:00 PM33 °FOvercast.3 mph87%29.15 "Hg6 mi
3:00 PM34 °FPassing clouds.5 mph81%29.15 "Hg5 mi
2:00 PM33 °FPassing clouds.5 mph76%29.15 "Hg6 mi
1:00 PM33 °FScattered clouds.3 mph70%29.15 "Hg9 mi
12:00 PM32 °FPartly sunny.3 mph75%29.15 "Hg11 mi
11:00 AM31 °FOvercast.3 mph77%29.12 "Hg11 mi
9:00 AM30 °FOvercast.3 mph80%29.09 "Hg11 mi
8:00 AM30 °FOvercast.5 mph81%29.06 "Hg10 mi
7:00 AM31 °FOvercast.5 mph82%29.06 "Hg10 mi
6:00 AM31 °FOvercast.5 mph83%29.03 "Hg9 mi
5:00 AM30 °FOvercast.5 mph84%29.03 "Hg6 mi
3:00 AM28 °FFog.3 mph91%29.00 "Hg4 mi
2:00 AM27 °FFog.3 mph93%29.00 "Hg4 mi
1:00 AM28 °FFog.3 mph93%29.00 "Hg4 mi
12:00 AM28 °FPassing clouds.5 mph92%29.00 "Hg5 mi
Weather by CustomWeather, © 2014

See weather overviewHow to use our weather pages